RH
14 32 32 24 15 16 24 38 29 27 27 24 30 18 18 19 12 10 7 9 12 14 19 23 25 25 32 36 38 42 47 52 59 67 72 69 62 55 51 47 37 40 44 47
30 32 17 21 23 23 32 36 31 32 39 41 29 15 16 17 16 14 13 13 17 19 20 22 26 29 29 33 34 40 46 50 55 62 69 70 62 53 46 42 41 46 52 53
21 22 20 25 31 28 37 35 35 40 33 34 24 20 24 22 24 20 24 26 24 23 24 25 25 27 28 30 32 37 42 49 53 59 68 69 61 52 43 44 50 57 61 60
20 19 22 24 29 30 38 32 39 45 39 27 28 22 24 22 28 24 30 33 33 30 30 30 36 37 39 42 41 37 41 51 58 64 61 52 54 48 50 62 68 66 63 58
35 20 21 26 29 34 41 42 41 41 47 44 39 36 26 26 29 32 31 35 36 38 40 40 42 46 48 47 43 44 50 53 52 52 50 53 54 62 75 69 61 58 55 52
16 16 23 27 38 43 44 41 44 38 48 44 40 37 26 28 33 37 39 40 43 44 44 45 47 50 54 52 52 57 61 61 59 62 59 60 76 85 74 61 57 58 58 60
23 21 25 34 48 52 56 49 47 44 42 36 44 43 31 34 33 34 40 45 48 48 50 52 53 57 62 64 66 70 70 67 65 67 64 66 86 81 78 75 63 66 73 63
47 37 35 48 48 59 55 53 53 78 46 40 41 42 27 26 30 35 39 44 48 54 59 53 56 64 71 71 73 77 77 69 67 75 72 92 91 93 76 92 80 85 60 67
61 50 47 48 58 57 64 60 61 59 60 61 42 40 35 32 30 33 41 45 57 54 56 58 60 67 73 72 72 72 77 79 82 86 97 97 96 96 96 92 84 69 64 78
74 72 55 54 56 65 65 66 66 65 84 71 36 37 35 39 42 44 46 58 58 65 66 64 64 64 66 67 68 71 80 88 92 97 97 96 96 96 95 94 89 93 80 67
72 82 69 54 64 72 73 73 64 63 65 67 66 45 41 39 42 39 46 52 62 80 78 62 64 70 76 75 73 70 73 85 93 97 97 96 96 95 94 96 93 78 70 52
76 78 88 71 67 53 53 73 69 68 64 73 85 72 50 37 36 38 53 68 75 79 64 74 85 82 74 72 80 83 82 88 95 97 96 96 95 94 95 92 85 63 52 38
90 99 87 60 57 54 59 68 77 82 88 90 93 65 41 47 52 56 64 71 80 76 76 87 98 78 71 68 74 82 98 96 96 96 95 95 95 95 97 88 67 60 43 34
74 87 97 73 62 71 80 81 83 90 97 90 84 61 35 33 45 62 69 77 78 82 88 85 71 74 69 71 79 95 99 96 95 95 96 95 95 97 81 74 73 51 37 25
78 79 91 89 92 94 96 91 69 94 84 98 41 70 47 42 61 73 79 70 79 76 91 79 78 74 76 79 84 100 97 94 94 96 96 96 94 82 80 82 64 36 30 17
96 93 95 88 87 100 99 68 52 90 88 86 82 70 43 69 75 79 85 86 92 92 87 86 88 86 82 90 97 98 100 97 97 99 96 94 90 89 90 78 39 30 17 14
94 95 100 97 98 96 96 46 49 50 70 66 78 58 74 72 80 84 81 98 89 86 93 95 89 84 84 96 100 99 96 98 98 95 92 100 97 93 89 66 29 19 12 15
68 77 96 99 99 95 56 47 52 62 60 56 70 76 78 83 84 94 79 81 91 100 98 92 91 88 94 98 97 96 97 96 94 93 98 96 96 88 88 36 23 13 14 25
67 73 89 96 94 73 69 56 57 64 66 65 78 85 84 93 92 72 84 99 97 98 94 93 91 96 99 97 97 97 96 94 93 97 96 99 97 92 34 26 14 14 31 34
75 80 92 97 98 82 61 66 67 66 79 94 93 94 97 98 98 88 100 87 98 96 90 86 87 98 98 97 97 96 95 94 100 98 92 95 75 30 28 16 14 37 38 34
86 90 95 88 99 95 69 70 66 89 82 90 98 96 90 95 99 98 86 98 99 84 81 83 98 91 94 99 96 94 94 97 97 92 93 55 30 31 18 18 37 43 37 45
92 98 98 98 97 90 66 69 81 90 92 85 83 90 88 85 98 87 98 98 89 83 80 83 90 95 98 94 87 86 91 93 96 99 50 31 30 22 24 42 45 41 47 57
99 90 86 89 79 75 80 85 94 88 93 94 97 90 94 97 92 99 97 82 78 84 92 95 96 98 92 84 85 85 88 96 76 38 34 30 24 28 48 47 42 45 55 75
98 98 90 86 86 96 98 90 84 80 95 95 97 98 98 88 99 96 73 76 79 89 100 96 95 90 86 85 81 77 70 46 40 37 33 28 33 48 50 45 42 44 75 82
98 96 99 98 87 68 91 95 94 93 86 93 95 98 98 98 85 73 72 78 81 98 98 96 94 93 91 79 68 58 45 42 38 31 28 37 49 49 46 41 35 59 86 90
97 100 99 74 65 84 76 98 100 92 92 89 91 88 84 81 77 77 85 83 83 97 96 95 95 90 76 69 55 46 42 34 28 28 38 48 50 49 43 38 31 76 96 92
Wind_Speed
7 6 7 10 11 11 11 8 14 13 15 25 22 26 20 14 15 18 21 18 17 18 20 21 25 27 26 26 27 29 30 30 31 30 30 31 33 33 33 33 32 33 35 36
5 3 7 9 12 13 14 18 16 10 18 26 23 19 6 5 8 8 8 11 13 14 17 21 22 23 27 29 31 32 32 33 33 33 33 33 33 34 35 36 38 38 36 36
2 4 6 9 11 15 14 12 17 22 30 16 21 9 10 5 12 3 6 11 12 14 14 18 20 23 25 27 29 31 34 34 35 35 34 33 33 34 36 39 40 43 40 42
1 4 5 6 10 18 11 15 23 24 20 11 15 10 6 9 8 1 9 18 10 12 19 19 21 26 30 32 32 30 31 33 33 31 31 30 31 32 36 38 40 40 44 44
4 5 5 5 13 15 10 22 23 21 9 11 4 4 3 4 5 6 13 16 17 19 19 24 30 31 31 29 26 24 27 31 32 29 29 28 31 35 38 41 41 41 41 42
6 7 5 6 13 13 17 19 15 15 2 5 5 5 4 4 7 8 11 17 19 21 23 25 28 26 27 27 31 35 35 34 33 32 31 31 34 38 40 40 39 42 42 43
8 5 4 6 11 11 18 13 7 3 3 6 4 12 9 9 10 13 15 16 20 22 22 26 27 23 26 29 30 31 32 32 35 34 35 37 39 38 39 40 42 43 45 47
6 2 6 16 5 17 8 6 3 5 5 13 21 9 4 10 9 16 19 23 27 27 29 32 28 25 28 32 31 31 32 32 35 37 40 42 41 39 41 42 44 47 47 50
6 3 16 6 17 13 7 4 9 6 12 7 8 11 23 5 13 16 18 25 25 37 38 36 32 29 32 35 35 32 32 35 37 39 42 42 42 42 43 41 45 48 51 54
8 9 7 6 20 11 12 12 4 3 5 6 10 22 14 12 14 16 25 23 34 37 38 36 38 38 38 39 38 36 33 36 39 43 42 43 43 40 41 41 48 51 51 50
14 6 8 15 7 18 13 7 4 7 7 5 7 11 13 29 18 29 32 36 37 32 35 40 39 38 42 44 43 37 35 36 38 42 42 41 39 38 41 48 47 47 49 47
12 12 11 19 16 10 7 9 7 6 7 15 16 40 32 16 30 37 38 36 34 33 39 45 47 48 47 45 44 43 39 34 37 41 39 40 39 44 43 42 45 46 46 46
16 6 13 14 4 9 11 13 12 18 27 32 15 24 25 35 37 38 37 36 35 38 44 48 46 50 43 42 43 45 43 34 36 38 39 44 39 38 40 43 44 46 47 47
17 15 17 21 24 23 29 33 33 29 29 40 39 59 49 38 40 38 38 37 40 50 52 52 49 45 44 42 43 43 41 34 36 39 42 37 36 39 39 43 45 47 46 47
17 24 21 29 27 26 31 38 38 34 46 40 55 47 43 39 41 42 39 39 53 55 52 47 49 45 43 40 39 39 38 39 41 39 37 34 35 37 41 44 48 48 46 45
23 24 27 37 30 24 28 40 39 36 39 43 49 56 36 39 36 35 35 45 54 55 50 53 52 44 40 36 35 37 38 40 40 35 33 31 35 39 42 45 48 46 46 44
28 26 19 21 15 20 23 15 24 26 25 32 35 38 34 36 32 38 50 51 50 55 60 54 43 40 38 33 34 34 39 40 30 29 28 33 37 41 42 47 47 46 44 44
28 27 26 24 25 7 12 31 32 34 30 30 31 34 29 30 37 46 45 47 53 59 50 45 45 42 38 34 34 37 38 26 25 23 29 36 39 42 44 48 46 44 45 45
14 22 23 11 18 36 20 23 28 37 37 32 25 20 32 43 60 50 45 52 54 56 48 45 44 39 36 31 33 39 25 21 20 26 32 37 40 41 45 45 44 45 46 45
20 24 27 25 17 16 27 36 25 27 27 8 23 39 61 55 50 57 49 54 60 49 46 46 39 35 33 34 28 21 19 19 23 28 33 36 39 43 42 43 43 44 45 43
22 24 32 37 30 26 24 32 25 11 27 38 52 49 43 48 50 54 53 51 48 48 50 40 33 32 28 22 21 18 18 22 25 30 34 38 38 40 41 41 42 43 41 39
29 19 19 22 18 19 20 24 29 37 50 48 49 48 49 52 54 52 56 45 54 51 40 33 29 25 21 22 17 17 21 24 28 31 36 36 37 39 40 40 41 39 38 40
25 37 35 36 36 39 46 50 49 44 48 50 49 47 52 58 51 57 47 54 49 42 34 28 23 21 19 17 17 20 22 25 29 32 34 35 36 37 38 40 38 35 37 40
33 23 48 48 51 49 48 49 47 46 49 49 51 57 49 56 52 53 53 53 52 36 30 24 20 18 17 17 20 21 23 26 30 31 33 34 35 35 36 35 33 35 37 40
48 52 51 53 54 59 45 45 48 48 45 46 49 49 54 45 54 55 53 51 37 30 25 19 17 16 17 19 21 22 25 28 30 30 31 33 33 34 32 30 31 33 35 39
48 48 44 60 55 50 55 47 41 46 47 48 49 48 47 50 52 52 51 42 31 24 20 16 14 15 19 20 23 25 26 28 28 29 31 31 32 31 30 29 28 30 34 33
Wind_Direction
2 43 31 17 7 353 343 324 322 319 309 318 314 312 319 299 290 276 278 280 276 272 263 262 271 278 280 284 286 283 279 278 279 280 280 280 279 279 281 283 283 289 296 302
357 6 0 5 1 357 345 332 334 339 330 319 322 337 351 353 323 309 301 291 295 291 278 275 280 285 289 288 287 282 277 275 275 277 279 278 278 279 281 283 287 294 297 295
307 286 346 0 352 352 342 336 328 321 325 329 333 334 346 339 347 294 3 328 305 299 295 294 295 295 293 294 289 283 280 278 277 278 279 277 276 277 279 285 294 299 297 295
248 305 344 356 350 346 340 333 327 320 325 323 324 313 8 331 355 128 335 334 315 299 304 301 308 300 296 297 295 296 288 284 283 284 281 277 272 275 281 286 289 288 291 291
275 303 319 320 338 341 317 332 325 313 291 291 237 269 275 51 3 325 307 318 309 306 296 290 295 302 298 295 291 293 294 293 288 286 276 270 271 276 283 287 290 292 290 290
296 302 295 300 342 341 338 344 321 317 284 263 201 350 262 333 315 315 310 316 310 306 302 294 297 297 299 290 289 294 295 291 286 290 281 280 282 289 291 291 291 291 295 299
325 295 281 307 351 348 343 350 338 302 270 296 223 302 253 301 320 325 324 316 312 314 309 311 311 305 298 301 301 297 297 288 282 284 282 281 288 288 288 290 293 296 296 299
356 288 321 321 333 339 350 16 351 284 292 297 285 240 317 300 316 344 345 338 332 331 325 321 320 308 301 304 303 287 287 282 278 280 277 280 281 281 283 286 290 290 292 296
354 288 310 313 338 344 314 320 306 266 270 277 248 270 311 289 327 323 329 326 327 328 326 322 321 319 309 308 308 297 287 282 279 277 275 277 278 278 278 282 283 288 289 293
320 305 299 288 325 321 317 301 298 252 291 284 274 295 258 289 305 314 332 320 322 324 324 319 317 316 311 308 308 302 294 282 277 276 277 277 276 276 278 281 285 287 291 294
329 320 289 315 304 298 293 284 256 280 239 276 301 276 283 297 307 328 328 325 325 320 319 317 312 310 308 306 304 301 296 283 276 272 275 276 277 278 281 286 290 292 296 299
315 306 294 303 305 292 256 251 256 283 277 271 276 278 299 296 312 323 324 320 315 316 313 320 319 314 310 308 301 298 294 279 271 269 270 270 275 280 288 292 295 298 301 302
312 302 315 331 312 325 312 297 280 288 285 272 258 271 299 301 305 309 314 314 314 314 317 320 318 317 315 313 307 301 292 273 266 266 267 278 284 290 292 297 299 303 305 305
289 274 249 264 278 287 282 277 274 272 269 271 260 278 307 315 315 310 308 308 312 319 322 321 322 318 316 312 305 299 289 268 265 269 280 283 288 293 296 297 303 305 304 304
296 282 278 281 281 281 278 282 282 265 262 258 286 280 295 313 310 308 308 306 314 321 325 322 325 318 313 308 303 298 283 272 275 284 280 288 295 294 296 301 306 306 305 304
297 284 290 293 300 287 280 296 295 274 268 266 270 282 310 309 305 306 304 308 308 320 319 319 320 314 311 303 299 299 286 282 285 281 288 293 292 297 299 304 309 308 307 303
284 286 296 283 295 296 287 310 295 292 278 282 274 293 302 306 305 301 314 311 319 323 320 316 320 316 308 297 292 285 285 290 279 288 295 292 294 298 300 308 311 309 306 306
281 289 286 284 296 232 289 300 297 290 293 294 287 297 303 299 295 298 318 323 324 322 318 320 318 315 306 297 287 285 289 277 292 296 291 292 296 301 304 310 311 310 310 310
279 276 273 268 272 291 305 319 312 305 298 296 296 299 295 301 315 318 325 320 317 320 323 316 318 307 301 299 297 284 274 296 298 292 297 297 299 303 310 311 311 311 312 313
274 273 261 269 281 292 302 312 300 300 298 267 311 305 314 321 315 322 321 317 319 322 324 320 312 303 299 294 284 282 301 300 293 298 303 304 306 310 311 312 312 314 315 314
276 275 258 266 261 277 300 305 306 288 306 305 306 314 313 316 314 317 319 321 316 324 323 315 303 303 302 283 289 309 299 291 296 301 305 308 310 312 313 313 315 318 316 316
277 265 260 271 256 281 306 306 301 294 292 313 313 317 316 313 314 318 317 316 324 325 322 311 307 306 292 299 309 298 294 297 298 302 307 311 313 314 315 316 318 319 318 320
258 273 271 264 265 283 290 287 297 311 308 315 313 313 311 309 318 315 315 326 328 326 312 304 303 296 303 307 302 301 302 302 303 307 311 313 316 316 319 319 321 321 323 326
278 265 285 281 284 289 295 304 308 311 312 314 315 312 315 315 312 313 325 328 326 315 301 296 296 303 306 306 304 305 307 307 308 311 313 315 317 320 321 322 323 325 328 330
286 291 279 284 297 308 304 307 305 309 311 311 309 311 315 312 316 319 320 321 316 305 291 293 301 307 302 304 308 309 310 309 312 314 316 318 320 323 324 326 327 329 332 332
277 282 283 294 305 302 306 310 310 308 308 309 311 312 315 313 315 315 318 317 311 301 290 300 310 302 302 309 310 311 311 313 315 317 318 321 323 327 328 329 330 334 336 334